Showing default

FOX-1, 40967

Orbit data source: Space-Track

FOX-1, 40967 is a payload satellite owned by AMSAT-NA (US) in LEO that was launched on Thu, 08 Oct 2015 UTC via an ATLAS V 401 launch vehicle from the Air Force Western Test Range (AFWTR). Payloads include a variety of satellites, spacecraft, and rockets equipped with specific instruments for various scientific and technological missions. These include communications satellites like Starlink; space stations such as the ISS; scientific satellites like the Hubble; Earth observation satellites from companies like Planet Labs, Umbra, and HawkEye 360; GPS; miniature CubeSats for education and research; and military/defense satellites.

Loading next visibility...
FOX-1 details
Identifier
40967, 2015-058D
Orbit
LEO
Last TLE update20 hours ago
Origin
Flag of USAMSAT-NA (US)
ManufacturerAMSAT-NA
MissionOperational Amateur Technology
Bus & MotorCUBESAT 1U, Unknown motor
Mass1 kg wet, 1 kg dry
Launch date (UTC)
2015-10-08 (9 years ago)
Launch vehicle
ATLAS V 401
Launch site
Air Force Western Test Range (AFWTR)
Object type
Payload
Rocket body
Debris
Shape & HBRBox, 0.1 m
Radar Cross Section0.015 m², Medium (>0.1 m² and < 1m²)

Expand to show TLE details & history

TLE from 20 hours ago
0 FOX-1
1 40967U 15058D   24360.61700310  .00011164  00000-0  96288-3 0  9997
2 40967  64.7751 147.1299 0183210 246.6219 111.5528 14.85552633 33399
Epoch: 2024-12-25T14:48Z
Definitive object data (Epoch: 2024-12-25T14:48:29.067Z)
Latitude-0.00008°
Longitude-169.59944°
Altitude662.913 km
Speed7.5 km/s
True Right ascension09h 48m 31s
True Declination0° 00' 00"
Sunlit
Object was in full shadow at TLE epoch
Visualization TLE readout
Latitude-19.99656°
Longitude17.60936°
Altitude525.774 km
Speed7.65 km/s
Apparent Right ascension22h 22m 04s
Apparent Declination-29° 24' 35"
Sunlit
Object is in daylight
Visualization observer readout
Local Sidereal Time10:28:19
Azimuth7.43° NNE
Elevation-79.416°
Doppler factor1
Orbital elements
Apogee altitude738.459 km
Perigee altitude482.384 km
Semi-major axis6,988.559 km
Eccentricity0.018321
Inclination64.7751°
RAAN147.1299°
Arg. of periapsis246.6219°
True anomaly113.48877°
Mean anomaly111.5528°
Eccentric anomaly112.52245°
Mean motion3.71502 °/min
BSTAR0.00096288
Orbital period96.9 mins
Loading maneuver chart data...
Loading historical data...
Loading historical data...
Loading historical data...
Loading historical data...
Loading historical data...
Loading historical data...
Loading historical data...

FOX-1 Visibility forecast

Observer location: undefined°, undefined

Span
Click to sort rows by Start time (UTC) header in descending order
Start Az.
Max El. time (UTC)
Max El. Az.
Max El.
End time (UTC)
End Az.
9 mins2024-12-26 11:57:01.482Z219.658° SW2024-12-26 12:01:01.482Z263.644° W42.415°2024-12-26 12:06:01.482Z26.937° NE
7 mins2024-12-26 20:27:01.482Z332.313° NNW2024-12-26 20:30:01.482Z1.24° NNE42.97°2024-12-26 20:34:01.482Z142.994° SSE
7 mins2024-12-27 10:34:01.482Z159.317° S2024-12-27 10:37:01.482Z109.885° ESE25.388°2024-12-27 10:41:01.482Z55.423° ENE
|